TimeCST,TemperatureF,Dew PointF,Humidity,Sea Level PressureIn,VisibilityMPH,Wind Direction,Wind SpeedMPH,Gust SpeedMPH,PrecipitationIn,Events,Conditions,WindDirDegrees,DateUTC
12:15 AM,19.9,8.6,61,30.25,10.0,NNW,12.7,16.1,N/A,,Clear,330,2013-11-27 06:15:00
12:35 AM,19.4,8.6,63,30.25,10.0,NNW,12.7,20.7,N/A,,Clear,330,2013-11-27 06:35:00
12:55 AM,19.2,8.6,63,30.25,10.0,NNW,11.5,18.4,N/A,,Clear,330,2013-11-27 06:55:00
1:15 AM,19.0,8.4,63,30.26,10.0,NW,13.8,-,N/A,,Clear,320,2013-11-27 07:15:00
1:35 AM,18.5,8.6,65,30.26,10.0,NNW,13.8,-,N/A,,Clear,330,2013-11-27 07:35:00
1:55 AM,18.3,8.4,65,30.26,10.0,NNW,10.4,-,N/A,,Clear,330,2013-11-27 07:55:00
2:15 AM,18.0,8.4,66,30.26,10.0,Calm,Calm,-,N/A,,Clear,0,2013-11-27 08:15:00
2:35 AM,17.4,8.2,67,30.27,10.0,NNW,10.4,-,N/A,,Clear,330,2013-11-27 08:35:00
2:55 AM,17.2,7.7,66,30.27,10.0,NNW,11.5,18.4,N/A,,Clear,330,2013-11-27 08:55:00
3:15 AM,16.9,7.7,67,30.27,10.0,NNW,11.5,-,N/A,,Clear,330,2013-11-27 09:15:00
3:35 AM,16.7,7.3,67,30.27,10.0,NNW,10.4,-,N/A,,Clear,330,2013-11-27 09:35:00
3:55 AM,16.7,7.2,66,30.28,10.0,NNW,10.4,-,N/A,,Clear,330,2013-11-27 09:55:00
4:15 AM,16.5,7.3,67,30.29,10.0,NNW,11.5,-,N/A,,Clear,330,2013-11-27 10:15:00
4:35 AM,16.2,6.8,67,30.29,10.0,Calm,Calm,-,N/A,,Clear,0,2013-11-27 10:35:00
4:55 AM,15.8,6.8,68,30.29,10.0,NW,9.2,-,N/A,,Clear,320,2013-11-27 10:55:00
5:15 AM,14.7,7.5,73,30.29,10.0,Calm,Calm,-,N/A,,Clear,0,2013-11-27 11:15:00
5:35 AM,14.7,7.7,74,30.30,10.0,NW,3.5,-,N/A,,Clear,320,2013-11-27 11:35:00
5:55 AM,14.5,7.7,74,30.30,10.0,Calm,Calm,-,N/A,,Clear,0,2013-11-27 11:55:00
6:15 AM,14.5,8.2,76,30.31,10.0,Calm,Calm,-,N/A,,Clear,0,2013-11-27 12:15:00
6:35 AM,14.4,7.9,75,30.31,10.0,Calm,Calm,-,N/A,,Clear,0,2013-11-27 12:35:00
6:55 AM,14.2,7.7,75,30.32,10.0,Calm,Calm,-,N/A,,Clear,0,2013-11-27 12:55:00
7:15 AM,14.0,7.7,76,30.33,10.0,Calm,Calm,-,N/A,,Clear,0,2013-11-27 13:15:00
7:35 AM,14.9,8.1,74,30.33,10.0,Calm,Calm,-,N/A,,Clear,0,2013-11-27 13:35:00
7:55 AM,15.6,8.2,73,30.34,10.0,Calm,Calm,-,N/A,,Clear,0,2013-11-27 13:55:00
8:15 AM,16.5,8.4,70,30.34,10.0,Calm,Calm,-,N/A,,Clear,0,2013-11-27 14:15:00
8:35 AM,17.6,8.4,67,30.35,10.0,NW,11.5,-,N/A,,Clear,310,2013-11-27 14:35:00
8:55 AM,18.5,8.1,64,30.35,10.0,NW,12.7,-,N/A,,Clear,310,2013-11-27 14:55:00
9:15 AM,19.4,7.9,61,30.35,10.0,NW,12.7,-,N/A,,Clear,320,2013-11-27 15:15:00
9:35 AM,20.5,7.9,58,30.35,10.0,NNW,12.7,-,N/A,,Clear,330,2013-11-27 15:35:00
9:55 AM,21.4,7.3,55,30.35,10.0,Calm,Calm,-,N/A,,Clear,0,2013-11-27 15:55:00
10:15 AM,22.3,7.3,53,30.35,10.0,NNW,13.8,-,N/A,,Clear,330,2013-11-27 16:15:00
10:35 AM,23.4,7.9,52,30.34,10.0,NW,13.8,17.3,N/A,,Clear,310,2013-11-27 16:35:00
10:55 AM,23.7,8.1,51,30.34,10.0,NW,6.9,18.4,N/A,,Clear,310,2013-11-27 16:55:00
11:15 AM,23.9,7.9,51,30.33,10.0,WNW,11.5,16.1,N/A,,Clear,300,2013-11-27 17:15:00
11:35 AM,25.0,8.4,50,30.32,10.0,NW,11.5,16.1,N/A,,Clear,310,2013-11-27 17:35:00
11:55 AM,25.2,7.5,47,30.31,10.0,NW,6.9,-,N/A,,Clear,320,2013-11-27 17:55:00
12:15 PM,26.1,7.7,46,30.30,10.0,NNW,12.7,18.4,N/A,,Clear,330,2013-11-27 18:15:00
12:35 PM,26.4,7.9,46,30.31,10.0,WNW,12.7,19.6,N/A,,Clear,300,2013-11-27 18:35:00
12:55 PM,27.0,7.7,44,30.31,10.0,WNW,8.1,19.6,N/A,,Clear,290,2013-11-27 18:55:00
1:15 PM,27.5,7.9,44,30.30,10.0,WNW,12.7,18.4,N/A,,Clear,300,2013-11-27 19:15:00
1:35 PM,27.7,7.5,43,30.30,10.0,West,3.5,17.3,N/A,,Clear,280,2013-11-27 19:35:00
1:55 PM,27.9,7.5,42,30.30,10.0,WNW,5.8,-,N/A,,Clear,300,2013-11-27 19:55:00
2:15 PM,28.4,7.5,41,30.30,10.0,WNW,4.6,21.9,N/A,,Clear,290,2013-11-27 20:15:00
2:35 PM,28.6,7.3,41,30.30,10.0,NW,6.9,-,N/A,,Clear,310,2013-11-27 20:35:00
2:55 PM,28.4,7.2,41,30.30,10.0,WNW,12.7,-,N/A,,Clear,290,2013-11-27 20:55:00
3:15 PM,28.0,6.4,40,30.30,10.0,WNW,4.6,-,N/A,,Clear,300,2013-11-27 21:15:00
3:35 PM,28.0,8.1,43,30.30,10.0,Calm,Calm,-,N/A,,Clear,0,2013-11-27 21:35:00
3:55 PM,27.5,7.9,44,30.30,10.0,Calm,Calm,-,N/A,,Clear,0,2013-11-27 21:55:00
4:15 PM,26.8,8.6,46,30.30,10.0,Calm,Calm,-,N/A,,Clear,0,2013-11-27 22:15:00
4:35 PM,24.6,9.5,53,30.30,10.0,Calm,Calm,-,N/A,,Clear,0,2013-11-27 22:35:00
4:55 PM,23.9,9.5,54,30.30,10.0,Calm,Calm,-,N/A,,Clear,0,2013-11-27 22:55:00
5:15 PM,23.2,9.3,55,30.30,10.0,Calm,Calm,-,N/A,,Clear,0,2013-11-27 23:15:00
5:35 PM,23.0,9.3,56,30.30,10.0,Calm,Calm,-,N/A,,Clear,0,2013-11-27 23:35:00
5:55 PM,23.7,8.6,53,30.30,10.0,Calm,Calm,-,N/A,,Clear,0,2013-11-27 23:55:00
6:15 PM,21.4,10.6,63,30.30,10.0,Calm,Calm,-,N/A,,Clear,0,2013-11-28 00:15:00
6:35 PM,21.4,9.7,61,30.30,10.0,Calm,Calm,-,N/A,,Clear,0,2013-11-28 00:35:00
6:55 PM,20.5,12.4,71,30.30,10.0,Calm,Calm,-,N/A,,Clear,0,2013-11-28 00:55:00
7:15 PM,19.8,11.5,70,30.30,10.0,Calm,Calm,-,N/A,,Clear,0,2013-11-28 01:15:00
7:35 PM,20.8,10.4,64,30.30,10.0,Calm,Calm,-,N/A,,Clear,0,2013-11-28 01:35:00
7:55 PM,21.2,9.5,61,30.29,10.0,Calm,Calm,-,N/A,,Clear,0,2013-11-28 01:55:00
8:15 PM,20.3,10.4,66,30.29,10.0,Calm,Calm,-,N/A,,Clear,0,2013-11-28 02:15:00
8:35 PM,21.4,8.8,58,30.29,10.0,Calm,Calm,-,N/A,,Clear,0,2013-11-28 02:35:00
8:55 PM,19.2,8.8,64,30.28,10.0,Calm,Calm,-,N/A,,Clear,0,2013-11-28 02:55:00
9:15 PM,18.7,10.6,71,30.29,10.0,Calm,Calm,-,N/A,,Clear,0,2013-11-28 03:15:00
9:35 PM,20.1,9.5,63,30.30,10.0,Calm,Calm,-,N/A,,Clear,0,2013-11-28 03:35:00
9:55 PM,20.5,9.3,62,30.29,10.0,Calm,Calm,-,N/A,,Clear,0,2013-11-28 03:55:00
10:15 PM,20.3,9.9,64,30.29,10.0,Calm,Calm,-,N/A,,Clear,0,2013-11-28 04:15:00
10:35 PM,20.7,9.9,63,30.28,10.0,Calm,Calm,-,N/A,,Clear,0,2013-11-28 04:35:00
10:55 PM,20.5,9.5,63,30.28,10.0,Calm,Calm,-,N/A,,Clear,0,2013-11-28 04:55:00
11:15 PM,21.0,10.0,63,30.25,10.0,Calm,Calm,-,N/A,,Clear,0,2013-11-28 05:15:00
11:35 PM,22.1,10.4,61,30.26,10.0,Calm,Calm,-,N/A,,Clear,0,2013-11-28 05:35:00
11:55 PM,21.9,10.4,61,30.26,10.0,Calm,Calm,-,N/A,,Clear,0,2013-11-28 05:55:00